Weather History for Savanna, IL

Change the Weather History Date:

Sunday, December 2, 2012

  Actual Average (KCWI) Record (KCWI)
Temperature  
Mean Temperature 48 °F -  
Max Temperature 58 °F 38 °F 65 °F (1973)
Min Temperature 38 °F 23 °F 1 °F (2005)
Degree Days  
Heating Degree Days 17    
Moisture  
Dew Point 48 °F    
Average Humidity 92    
Maximum Humidity 99    
Minimum Humidity 72    
Precipitation  
Precipitation 0.00 in - - ()
Sea Level Pressure  
Sea Level Pressure 29.96 in    
Wind  
Wind Speed 2 mph (South)    
Max Wind Speed 9 mph    
Max Gust Speed -    
Visibility 2 miles    
Events Fog , Rain    
Averages and records for this station are not official NWS values.
T = Trace of Precipitation, MM = Missing Value Source: NWS Daily Summary

Daily Weather History Graph

Daily Weather History Graph

Search for Another Location

Airport:

Trip Planner

Search our weather history database for the weather conditions in past years. The results will help you decide how hot, cold, wet, or windy it might be!

Date:

Astronomy

Dec. 02, 2012 Rise Set
Actual Time 7:10 AM CST 4:29 PM CST
Civil Twilight 6:39 AM CST 5:00 PM CST
Nautical Twilight 6:04 AM CST 5:35 PM CST
Astronomical Twilight 5:30 AM CST 6:09 PM CST
Moon 8:18 PM CST (12/2) 9:58 AM CST (12/2)
Length of Visible Light 10h 21m
Length of Day
9h 18m
Waning Gibbous, 85% of the Moon is Illuminated
Dec 2
Waning Gibbous
Dec 6
Last Quarter
Dec 13
New
Dec 19
First Quarter
Dec 28
Full

Hourly Weather History & Observations

Time (CST) Temp. Windchill Dew Point Humidity Pressure Visibility Wind Dir Wind Speed Gust Speed Precip Events Conditions
12:15 AM 55.0 °F - 53.1 °F 93% 29.85 in 7.0 mi South 3.5 mph - N/A   Overcast
12:35 AM 55.4 °F - 53.1 °F 92% 29.85 in 7.0 mi Calm Calm - N/A   Overcast
12:55 AM 53.8 °F - 52.0 °F 94% 29.85 in 5.0 mi Calm Calm - N/A   Overcast
1:15 AM 53.8 °F - 52.2 °F 94% 29.85 in 5.0 mi Calm Calm - N/A Rain Light Rain
1:35 AM 53.6 °F - 52.0 °F 94% 29.86 in 5.0 mi Calm Calm - N/A   Overcast
1:55 AM 53.2 °F - 51.8 °F 95% 29.86 in 4.0 mi Calm Calm - N/A Rain Rain
2:15 AM 53.2 °F - 51.8 °F 95% 29.86 in 4.0 mi Calm Calm - N/A   Light Drizzle
2:35 AM 53.1 °F - 51.8 °F 95% 29.86 in 3.0 mi Calm Calm - N/A   Overcast
2:55 AM 52.7 °F - 51.4 °F 95% 29.86 in 4.0 mi South 4.6 mph - N/A   Overcast
3:15 AM 54.0 °F - 52.5 °F 95% 29.86 in 5.0 mi Calm Calm - N/A   Overcast
3:35 AM 51.8 °F - 50.4 °F 95% 29.87 in 3.0 mi Calm Calm - N/A   Overcast
3:55 AM 51.4 °F - 50.4 °F 96% 29.87 in 3.0 mi Calm Calm - N/A   Overcast
4:15 AM 52.3 °F - 51.3 °F 96% 29.88 in 3.0 mi Calm Calm - N/A   Overcast
4:35 AM 52.7 °F - 51.8 °F 97% 29.88 in 3.0 mi Calm Calm - N/A   Overcast
4:55 AM 52.2 °F - 50.9 °F 95% 29.88 in 3.0 mi Calm Calm - N/A   Overcast
5:15 AM 51.4 °F - 50.4 °F 96% 29.88 in 2.0 mi Calm Calm - N/A   Overcast
5:35 AM 50.9 °F - 49.8 °F 96% 29.90 in 1.0 mi Calm Calm - N/A   Overcast
5:55 AM 49.8 °F - 48.9 °F 97% 29.90 in 1.0 mi Calm Calm - N/A   Overcast
6:15 AM 47.7 °F - 46.8 °F 97% 29.91 in 0.2 mi Calm Calm - N/A Fog Fog
6:35 AM 47.8 °F - 46.9 °F 97% 29.92 in 0.2 mi Calm Calm - N/A Fog Fog
6:55 AM 44.1 °F - 43.2 °F 97% 29.93 in 0.2 mi Calm Calm - N/A Fog Fog
7:15 AM 46.9 °F - 46.2 °F 97% 29.94 in 0.2 mi WSW 3.5 mph - N/A Fog Fog
7:35 AM 49.6 °F - 48.9 °F 97% 29.94 in 0.2 mi Calm Calm - N/A Fog Fog
7:55 AM 47.3 °F - 46.8 °F 98% 29.95 in 0.2 mi Calm Calm - N/A Fog Fog
8:15 AM 49.1 °F - 48.4 °F 97% 29.96 in 0.2 mi Calm Calm - N/A Fog Fog
8:35 AM 49.1 °F - 48.4 °F 97% 29.97 in 0.2 mi Calm Calm - N/A Fog Fog
8:55 AM 48.7 °F - 48.2 °F 98% 29.98 in 0.2 mi Calm Calm - N/A   Light Drizzle
9:15 AM 48.7 °F - 48.2 °F 98% 29.98 in 0.2 mi Calm Calm - N/A Fog Fog
9:35 AM 49.6 °F - 48.9 °F 97% 29.99 in 0.2 mi Calm Calm - N/A Fog Fog
9:55 AM 51.1 °F - 50.4 °F 97% 29.99 in 1.0 mi Calm Calm - N/A   Overcast
10:15 AM 52.3 °F - 51.6 °F 97% 29.99 in 3.0 mi Calm Calm - N/A   Scattered Clouds
10:35 AM 52.7 °F - 52.0 °F 97% 29.99 in 4.0 mi Calm Calm - N/A   Clear
10:55 AM 53.6 °F - 52.7 °F 97% 29.99 in 4.0 mi SW 3.5 mph - N/A   Clear
11:15 AM 55.6 °F - 50.7 °F 84% 29.99 in 4.0 mi SW 3.5 mph - N/A   Haze
11:35 AM 57.6 °F - 50.4 °F 77% 30.00 in 5.0 mi SW 3.5 mph - N/A   Haze
11:55 AM 57.9 °F - 50.5 °F 76% 29.99 in 5.0 mi SSW 5.8 mph - N/A   Haze
12:15 PM 57.6 °F - 50.0 °F 76% 29.99 in 5.0 mi South 5.8 mph - N/A   Haze
12:35 PM 58.1 °F - 49.6 °F 73% 29.98 in 5.0 mi SSW 3.5 mph - N/A   Haze
12:55 PM 58.6 °F - 50.2 °F 73% 29.98 in 5.0 mi South 6.9 mph - N/A   Haze
1:15 PM 58.1 °F - 49.8 °F 74% 29.98 in 5.0 mi South 9.2 mph - N/A   Haze
1:35 PM 57.9 °F - 49.8 °F 74% 29.97 in 5.0 mi South 6.9 mph - N/A   Haze
1:55 PM 58.3 °F - 50.0 °F 74% 29.96 in 5.0 mi South 6.9 mph - N/A   Haze
2:15 PM 58.6 °F - 49.8 °F 72% 29.97 in 5.0 mi South 6.9 mph - N/A   Haze
2:35 PM 58.6 °F - 49.6 °F 72% 29.96 in 5.0 mi SSE 5.8 mph - N/A   Haze
2:55 PM 58.3 °F - 49.6 °F 73% 29.96 in 5.0 mi SSE 5.8 mph - N/A   Haze
3:15 PM 57.6 °F - 49.5 °F 74% 29.98 in 5.0 mi South 6.9 mph - N/A   Haze
3:35 PM 55.9 °F - 49.3 °F 78% 29.98 in 5.0 mi South 8.1 mph - N/A   Haze
3:55 PM 53.4 °F - 48.2 °F 82% 29.98 in 5.0 mi SSE 4.6 mph - N/A   Haze
4:15 PM 50.9 °F - 46.9 °F 86% 29.98 in 4.0 mi South 6.9 mph - N/A   Clear
4:35 PM 50.0 °F - 46.8 °F 89% 29.99 in 4.0 mi SSE 6.9 mph - N/A   Clear
4:55 PM 50.0 °F - 47.8 °F 92% 29.99 in 4.0 mi SSE 8.1 mph - N/A   Clear
5:15 PM 48.2 °F - 46.4 °F 93% 30.00 in 3.0 mi SSE 6.9 mph - N/A   Clear
5:35 PM 46.4 °F 42.9 °F 45.0 °F 95% 30.01 in 3.0 mi SSE 6.9 mph - N/A   Clear
5:55 PM 46.0 °F 43.1 °F 44.8 °F 95% 30.02 in 2.5 mi SSE 5.8 mph - N/A   Clear
6:15 PM 45.0 °F - 43.9 °F 96% 30.03 in 1.2 mi Calm Calm - N/A   Mist
6:35 PM 44.6 °F - 43.7 °F 97% 30.02 in 0.2 mi Calm Calm - N/A Fog Fog
6:55 PM 43.7 °F - 42.8 °F 97% 30.03 in 0.2 mi Calm Calm - N/A Fog Fog
7:15 PM 41.7 °F - 41.0 °F 97% 30.03 in 0.2 mi Calm Calm - N/A Fog Fog
7:35 PM 41.7 °F 38.8 °F 41.2 °F 98% 30.03 in 0.2 mi NE 4.6 mph - N/A Fog Fog
7:55 PM 41.4 °F 36.8 °F 41.0 °F 99% 30.02 in 0.2 mi ENE 6.9 mph - N/A Fog Fog
8:15 PM 40.6 °F 37.5 °F 40.1 °F 98% 30.02 in 0.2 mi East 4.6 mph - N/A Fog Fog
8:35 PM 38.3 °F - 37.9 °F 99% 30.00 in 0.2 mi Calm Calm - N/A Fog Fog
8:55 PM 40.3 °F - 39.6 °F 97% 29.99 in 0.2 mi Calm Calm - N/A Fog Fog
9:15 PM 41.2 °F - 40.6 °F 98% 30.00 in 0.2 mi Calm Calm - N/A Fog Fog
9:35 PM 41.9 °F - 41.2 °F 97% 30.00 in 0.2 mi Calm Calm - N/A Fog Fog
9:55 PM 42.8 °F - 42.1 °F 97% 29.99 in 0.2 mi Calm Calm - N/A Fog Fog
10:15 PM 43.3 °F - 42.8 °F 98% 30.00 in 0.2 mi Calm Calm - N/A Fog Fog
10:35 PM 42.8 °F - 42.3 °F 98% 30.01 in 0.2 mi Calm Calm - N/A Fog Fog
10:55 PM 43.3 °F - 42.8 °F 98% 30.00 in 0.2 mi Calm Calm - N/A Fog Fog
11:15 PM 43.5 °F - 42.8 °F 97% 30.00 in 0.2 mi Calm Calm - N/A Fog Fog
11:35 PM 44.1 °F - 43.3 °F 97% 29.99 in 0.2 mi Calm Calm - N/A Fog Fog
11:55 PM 44.8 °F - 44.1 °F 97% 29.99 in 0.2 mi Calm Calm - N/A Fog Fog